TIANWANG 1B (TW-1B)
1 40927U 15051C   19131.37244213  .00010208  00000-0  16283-3 0  9999
2 40927  97.1417 177.0479 0009405 153.3304  37.2566 15.53362115204068
TIANWANG 1A (TW-1A)
1 40928U 15051D   19131.56942117  .00002942  00000-0  74358-4 0  9993
2 40928  97.1486 163.7158 0010158 204.2488 282.7764 15.40537159203308
LAPAN A2
1 40931U 15052B   19131.05198734  .00000709  00000-0  96159-5 0  9993
2 40931   5.9990 332.1573 0013925 329.9103  30.0307 14.76606245195540
LQSAT
1 40958U 15057A   19130.77803403 -.00000001 +00000-0 +74876-5 0  9999
2 40958 097.9008 201.0197 0018319 010.9353 349.2249 14.73076355193089
CHUBUSAT 2
1 41338U 16012B   19130.83342057 +.00000330 +00000-0 +19038-4 0  9996
2 41338 031.0040 031.7147 0013633 078.4913 281.7252 15.00136048177077
CHUBUSAT 3
1 41339U 16012C   19131.14012340  .00000323  00000-0  18406-4 0  9991
2 41339  31.0105  27.9104 0013351  88.6425 271.5741 15.00312981177115
OUFTI-1
1 41458U 16025C   19130.91354451 +.00002945 +00000-0 +15221-3 0  9996
2 41458 098.1010 215.7913 0168117 127.2772 234.3918 15.05683968166737
E-STAR-2
1 41459U 16025D   19131.45264022  .00002513  00000-0  13154-3 0  9995
2 41459  98.0987 216.0389 0168940 126.7451 234.9442 15.05332034166792
AAUSAT 4
1 41460U 16025E   19131.27634690  .00002408  00000-0  12363-3 0  9993
2 41460  98.0947 217.0037 0159607 120.2658 241.4474 15.07165735166881
NUSAT 1
1 41557U 16033B   19131.51667481  .00001229  00000-0  48876-4 0  9999
2 41557  97.4173 219.2419 0015518  75.2871 285.0086 15.27112138164262
BEESAT 4
1 41619U 16040W   19130.81836049 +.00001318 +00000-0 +58909-4 0  9993
2 41619 097.3705 193.7614 0012174 152.8371 207.3505 15.23011188147944
PRATHAM
1 41783U 16059A   19130.75171666  .00000031  00000-0  15158-4 0  9995
2 41783  98.0707 191.1862 0034481 144.7163 215.6331 14.62988581139859
ALSAT 1N
1 41789U 16059G   19131.38859111  .00000086  00000-0  25235-4 0  9996
2 41789  98.0722 193.7182 0029279 132.4282 227.9402 14.64236112140046
NAYIF 1
1 42017U 17008BX  19130.73361056  .00001335  00000-0  55705-4 0  9993
2 42017  97.4056 198.2253 0004892 318.5467  41.5399 15.25406092123982
MAX VALIER SAT
1 42778U 17036P   19130.73840083 +.00000882 +00000-0 +41672-4 0  9994
2 42778 097.3578 189.2562 0012499 009.8710 350.2769 15.21935631104319
